NM5I Weather Reports


Display with metric or nautical units.
time (UTC)temp
F
wind
direction
speed
MPH
gust
MPH
rain 1hr
in
rain 24hr
in
rain mn
in
humidity
%
barometer
mb
20240518061135 71 190 0.0 2.0 0.00 0.01 0.00 91 1009.7
20240518060130 71 190 1.0 5.0 0.00 0.01 0.00 91 1009.6
20240518055147 71 166 2.0 5.0 0.00 0.01 0.00 91 1009.5
20240518054135 71 215 3.0 6.0 0.00 0.01 0.00 90 1009.5
20240518053208 72 183 2.0 6.0 0.00 0.01 0.00 89 1009.5
20240518052134 72 213 2.0 5.0 0.00 0.01 0.00 88 1009.5
20240518051141 72 228 2.0 4.0 0.00 0.01 0.00 88 1009.5
20240518050829 72 260 1.0 5.0 0.00 0.01 0.00 88 1009.4
20240518050133 72 202 2.0 5.0 0.00 0.01 0.00 87 1009.4
20240518040151 72 225 0.0 0.0 0.00 0.01 0.01 86 1008.7
20240518035211 72 225 0.0 0.0 0.00 0.01 0.01 86 1008.6
20240518034214 72 225 0.0 0.0 0.00 0.01 0.01 85 1008.6
20240518033222 72 225 0.0 1.0 0.00 0.01 0.01 86 1008.4
20240518032241 72 225 0.0 0.0 0.00 0.01 0.01 86 1008.4
20240518031140 72 225 0.0 0.0 0.00 0.01 0.01 86 1008.2
20240518030202 73 225 0.0 1.0 0.00 0.01 0.01 85 1008.1
20240518025218 73 225 0.0 0.0 0.00 0.01 0.01 85 1007.9
20240518024126 73 225 0.0 1.0 0.00 0.01 0.01 84 1007.7
20240518023135 74 225 0.0 1.0 0.00 0.01 0.01 82 1007.6
20240518022201 74 225 0.0 1.0 0.00 0.01 0.01 81 1007.5
20240518021154 75 225 0.0 0.0 0.00 0.01 0.01 80 1007.3
20240518020150 76 225 0.0 0.0 0.00 0.01 0.01 80 1007.1
20240518014142 77 225 0.0 0.0 0.00 0.01 0.01 77 1007.0
20240518013152 77 225 0.0 0.0 0.00 0.01 0.01 75 1007.1
20240518012218 78 225 0.0 0.0 0.00 0.01 0.01 74 1007.0
20240518011144 78 225 0.0 0.0 0.00 0.01 0.01 71 1006.9
20240518010153 79 225 0.0 0.0 0.00 0.01 0.01 70 1006.9
20240518005141 80 225 0.0 5.0 0.00 0.04 0.01 69 1006.9
20240518003137 81 236 2.0 6.0 0.00 0.04 0.01 66 1006.6
20240518002151 82 215 1.0 6.0 0.00 0.04 0.01 64 1006.5
20240518001157 82 227 1.0 3.0 0.00 0.04 0.01 63 1006.5
20240518000131 83 238 2.0 5.0 0.00 0.04 0.01 61 1006.5
20240517235149 83 281 2.0 6.0 0.00 0.12 0.01 61 1006.5
20240517234237 83 228 3.0 7.0 0.00 0.12 0.01 60 1006.5
20240517233134 84 248 2.0 5.0 0.00 0.12 0.01 60 1006.7
20240517232136 84 286 0.0 6.0 0.00 0.12 0.01 60 1006.5
20240517231144 85 248 1.0 7.0 0.00 0.12 0.01 59 1006.5
20240517230859 85 234 1.0 7.0 0.00 0.12 0.01 59 1006.5
20240517230219 85 254 2.0 7.0 0.00 0.12 0.01 58 1006.6
20240517225141 84 246 3.0 7.0 0.00 0.22 0.01 60 1006.7
20240517224145 84 327 3.0 8.0 0.00 0.22 0.01 60 1006.7
20240517223202 85 265 3.0 8.0 0.00 0.22 0.01 60 1006.8
20240517222217 84 196 2.0 5.0 0.00 0.22 0.01 62 1006.8
20240517221133 83 233 1.0 5.0 0.00 0.22 0.01 62 1006.9
20240517220134 83 269 2.0 6.0 0.00 0.22 0.01 61 1007.1
20240517215140 83 183 3.0 7.0 0.00 0.36 0.01 60 1007.3
20240517214150 84 221 1.0 6.0 0.00 0.36 0.01 63 1007.3
20240517213220 83 186 2.0 4.0 0.00 0.36 0.01 62 1007.4
20240517212131 83 223 2.0 4.0 0.00 0.36 0.01 61 1007.4
20240517211130 82 219 2.0 4.0 0.00 0.36 0.01 62 1007.5
20240517210210 82 193 3.0 5.0 0.00 0.36 0.01 62 1007.6
20240517205239 83 171 3.0 7.0 0.00 0.44 0.01 61 1007.7
20240517204126 83 186 1.0 5.0 0.00 0.44 0.01 61 1007.8
20240517203137 84 183 2.0 5.0 0.00 0.44 0.01 59 1007.7
20240517202151 84 293 2.0 9.0 0.00 0.44 0.01 59 1007.7
20240517201203 84 108 2.0 7.0 0.00 0.44 0.01 61 1007.8
20240517200917 83 58 0.0 6.0 0.00 0.44 0.01 61 1007.8
20240517200210 83 86 4.0 9.0 0.00 0.44 0.01 59 1007.8
20240517195213 83 290 1.0 4.0 0.00 0.54 0.01 59 1007.7
20240517194155 82 360 2.0 4.0 0.00 0.54 0.01 63 1007.8
20240517193211 81 34 1.0 4.0 0.00 0.54 0.01 67 1007.8
20240517192156 80 199 1.0 4.0 0.00 0.54 0.01 67 1007.9
20240517191202 79 30 0.0 3.0 0.00 0.54 0.01 65 1008.1
20240517190203 79 289 1.0 3.0 0.00 0.54 0.01 66 1008.4
20240517185222 79 120 0.0 2.0 0.00 0.58 0.01 67 1008.5
20240517184128 80 131 2.0 3.0 0.00 0.58 0.01 65 1008.5
20240517183140 80 270 1.0 4.0 0.00 0.58 0.01 65 1008.6
20240517182202 81 315 1.0 3.0 0.00 0.58 0.01 66 1008.6
20240517181205 79 119 2.0 6.0 0.00 0.58 0.01 67 1008.8
20240517180216 79 71 1.0 6.0 0.00 0.58 0.01 68 1008.9
20240517175234 80 9 2.0 5.0 0.00 0.58 0.01 66 1009.0
20240517174144 80 222 3.0 6.0 0.00 0.58 0.01 66 1009.1
20240517173212 79 198 1.0 5.0 0.00 0.58 0.01 68 1009.3
20240517172214 79 46 0.0 6.0 0.00 0.58 0.01 68 1009.3
20240517171146 78 215 1.0 4.0 0.00 0.58 0.01 68 1009.0
20240517170904 77 224 2.0 4.0 0.00 0.58 0.01 69 1009.0
20240517170155 78 38 0.0 4.0 0.00 0.58 0.01 69 1009.0
20240517165231 77 23 1.0 4.0 0.00 0.58 0.01 70 1009.0
20240517164219 77 285 2.0 4.0 0.00 0.58 0.01 69 1009.0
20240517163126 76 231 1.0 5.0 0.00 0.58 0.01 73 1008.9
20240517162151 76 291 0.0 3.0 0.00 0.58 0.01 72 1008.9
20240517161155 76 5 1.0 5.0 0.00 0.58 0.01 71 1009.0
20240517160140 76 292 2.0 5.0 0.00 0.58 0.01 72 1009.0
20240517155144 75 296 1.0 5.0 0.00 0.58 0.01 73 1008.9
20240517154214 75 336 1.0 4.0 0.00 0.58 0.01 73 1008.8
20240517153131 75 338 1.0 3.0 0.00 0.58 0.01 74 1009.1
20240517151132 74 284 1.0 4.0 0.00 0.58 0.01 76 1009.4
20240517150136 74 344 2.0 6.0 0.00 0.58 0.01 75 1009.2
20240517145145 73 307 1.0 4.0 0.00 0.58 0.01 77 1008.9
20240517144216 73 360 2.0 4.0 0.00 0.58 0.01 79 1009.0
20240517143127 72 73 1.0 3.0 0.00 0.58 0.01 81 1009.1
20240517141158 70 311 0.0 1.0 0.00 0.58 0.01 90 1009.2
20240517140913 70 311 0.0 2.0 0.00 0.58 0.01 91 1009.3
20240517140207 69 311 1.0 2.0 0.00 0.58 0.01 91 1009.2
20240517135212 68 311 0.0 1.0 0.00 0.58 0.01 93 1009.5
20240517134205 67 311 0.0 2.0 0.00 0.58 0.01 97 1009.5
20240517133200 66 311 0.0 1.0 0.00 0.58 0.01 98 1009.5
20240517132125 65 311 0.0 2.0 0.00 0.58 0.01 98 1009.7
20240517131149 64 311 0.0 2.0 0.00 0.58 0.01 98 1009.4
20240517130241 64 311 1.0 2.0 0.00 0.58 0.01 99 1009.1
20240517124135 63 311 0.0 0.0 0.00 0.58 0.01 99 1008.4
20240517123137 63 327 0.0 1.0 0.00 0.58 0.01 98 1008.0
20240517122152 62 327 1.0 1.0 0.00 0.58 0.01 98 1007.9
20240517121200 62 327 0.0 0.0 0.00 0.58 0.01 98 1007.9
20240517114219 61 327 0.0 1.0 0.00 0.58 0.01 98 1007.3
20240517113227 61 327 0.0 0.0 0.00 0.58 0.01 98 1007.0
20240517112217 61 327 0.0 0.0 0.00 0.58 0.01 98 1006.9
20240517111204 61 327 0.0 0.0 0.01 0.58 0.01 98 1006.7
20240517110200 61 327 0.0 1.0 0.01 0.58 0.01 98 1006.5
20240517105220 61 327 0.0 0.0 0.01 0.58 0.01 98 1006.4
20240517104221 62 327 0.0 0.0 0.01 0.58 0.01 98 1006.3
20240517103136 62 327 0.0 1.0 0.01 0.58 0.01 98 1005.9
20240517102139 62 327 0.0 0.0 0.01 0.58 0.01 97 1005.9
20240517101152 62 327 0.0 2.0 0.00 0.57 0.00 97 1006.0
20240517100133 62 327 0.0 2.0 0.00 0.57 0.00 97 1006.0
20240517095126 62 327 0.0 2.0 0.00 0.57 0.00 97 1006.0
20240517094129 62 323 1.0 2.0 0.00 0.57 0.00 97 1005.9
20240517093146 62 323 0.0 1.0 0.00 0.57 0.00 97 1006.3
20240517092149 62 323 0.0 2.0 0.00 0.57 0.00 97 1006.3
20240517090139 63 305 0.0 0.0 0.00 0.57 0.00 97 1006.5
20240517085157 63 305 0.0 0.0 0.00 0.57 0.00 97 1006.9
20240517084143 63 305 0.0 1.0 0.00 0.57 0.00 97 1006.8
20240517083220 63 305 0.0 1.0 0.00 0.57 0.00 96 1007.0
20240517082138 64 305 0.0 2.0 0.00 0.57 0.00 96 1007.5
20240517081157 64 305 0.0 1.0 0.00 0.57 0.00 96 1007.6
20240517080129 64 305 1.0 2.0 0.00 0.57 0.00 96 1007.7
20240517075159 64 306 1.0 3.0 0.00 0.57 0.00 96 1008.1
20240517074207 64 321 1.0 3.0 0.00 0.57 0.00 96 1008.7
20240517073209 64 5 1.0 3.0 0.00 0.57 0.00 96 1008.8
20240517072142 64 251 0.0 4.0 0.00 0.57 0.00 97 1009.0
20240517071210 64 309 2.0 5.0 0.00 0.57 0.00 97 1009.2
20240517070127 64 265 2.0 5.0 0.00 0.57 0.00 97 1009.5
20240517065134 64 325 1.0 2.0 0.00 0.57 0.00 97 1009.2
20240517064150 64 324 1.0 7.0 0.00 0.57 0.00 98 1009.3
20240517063138 64 326 1.0 3.0 0.00 0.57 0.00 98 1009.6
20240517062155 64 271 0.0 3.0 0.00 0.57 0.00 98 1009.6